Location: Staunton
(38.1490°N, 79.0720°W)
Time: 01:30:41
(UTC-05:00)

ISS - Pass Details

Date: 14 January 2018
Orbit: 402 x 407 km, 51.6° (Epoch: 21 January)

Event Time Altitude Azimuth Distance (km) Brightness Sun altitude
Exits shadow 06:27:07 21° 309° (NW) 981 -2.5 -12.6°
Maximum altitude 06:29:12 88° 226° (SW) 409 -3.9 -12.2°
Drops below altitude 10° 06:32:28 10° 131° (SE) 1,457 0.2 -11.6°
Sets 06:34:33 0° 131° (SE) 2,314 1.4 -11.2°
